Location: Newark
(40.2667°N, 44.5667°E)
Time: 23:25:41
(UTC+00:00)

Envisat - Visible Passes

Search period start: 20 September 2020 00:00
Search period end: 30 September 2020 00:00
Orbit: 764 x 766 km, 98.1° (Epoch: 20 September)

Date Brightness Start Highest point End Pass type
(mag) Time Alt. Az. Time Alt. Az. Time Alt. Az.
20 Sep 6.6 01:40:52 10° ENE 01:42:09 11° E 01:43:25 10° ESE visible
21 Sep 6.2 15:35:03 10° SW 15:38:11 16° W 15:41:20 10° NW visible
22 Sep 6.0 02:04:10 10° NE 02:07:52 20° E 02:11:33 10° SE visible
24 Sep 6.0 15:22:57 10° SW 15:26:43 21° W 15:30:30 10° NW visible
25 Sep 6.1 01:53:22 10° NE 01:56:24 16° E 01:59:25 10° SE visible
26 Sep 6.6 15:50:50 10° WSW 15:52:26 11° W 15:54:02 10° WNW visible
27 Sep 5.5 02:17:43 10° NE 02:22:04 28° E 02:26:22 10° SSE visible
27 Sep 5.6 15:11:02 10° SSW 15:15:16 26° W 15:19:31 10° NW visible
28 Sep 6.4 01:42:57 10° ENE 01:44:54 12° E 01:46:50 10° ESE visible
29 Sep 6.3 15:38:06 10° SW 15:40:56 15° W 15:43:47 10° NW visible
